Theta_e
333 335 337 339 340 341 340 340 341 341 341 340 339 338 338 338 336 335 334 333 334 333 334 334 333 333 332 331 332 332 333 332 331 329 326 326 328 330 332 332 329 327 327 325 322 321 320 321 322 324 327 330 329 329 330 331 332 331 331 330 330 329
330 331 335 338 338 339 340 340 341 341 341 340 338 338 338 337 335 335 333 333 333 332 333 334 332 332 331 329 329 330 331 331 331 329 325 325 326 328 332 333 332 329 328 327 323 321 321 322 323 325 328 329 329 329 329 331 331 331 330 330 330 328
329 329 333 337 337 338 339 339 340 341 341 340 339 338 338 337 336 335 333 334 334 331 332 333 332 332 330 328 328 328 330 330 330 328 325 326 326 327 329 331 333 331 328 327 325 323 322 323 324 325 326 328 329 329 329 331 331 331 329 329 329 326
329 328 331 335 336 337 338 337 338 340 341 340 339 338 338 337 336 336 334 334 334 331 331 332 333 332 330 329 329 329 331 331 331 329 326 325 326 326 326 328 332 332 330 327 326 325 324 323 323 323 326 327 329 329 329 330 331 331 329 328 328 326
331 329 329 330 332 335 336 337 337 338 339 339 338 338 337 337 336 336 336 335 334 332 332 332 332 333 332 331 332 332 332 331 333 333 328 327 327 326 325 327 330 332 331 327 326 325 323 324 323 322 325 328 329 329 330 330 330 330 329 327 327 325
332 331 331 330 329 330 332 334 335 336 337 338 338 337 336 336 336 335 335 334 333 333 333 333 332 333 332 332 334 333 331 331 334 334 331 330 328 325 325 326 328 331 331 327 326 324 323 324 323 323 324 328 329 328 330 330 330 330 329 327 326 326
333 333 333 333 332 330 329 330 332 333 334 335 336 335 334 336 336 335 335 334 334 334 334 334 332 332 332 333 335 333 332 332 334 332 330 330 327 322 321 321 323 328 329 326 325 324 323 323 323 323 324 327 328 328 329 330 329 329 328 327 326 326
334 334 333 333 334 333 332 331 331 332 332 332 331 332 332 333 333 334 335 335 334 334 334 334 332 331 331 332 334 333 332 332 332 331 327 327 326 321 319 320 322 324 326 325 324 323 323 323 322 322 323 325 327 328 328 329 329 329 328 327 326 326
333 333 332 332 334 333 334 334 333 332 332 331 329 329 328 327 328 331 333 333 334 334 334 334 332 332 331 332 333 332 333 332 331 331 327 324 323 320 319 321 319 320 324 324 323 323 323 323 323 323 323 324 325 327 328 328 328 328 328 327 327 327
331 331 331 331 331 332 333 335 334 333 334 334 332 330 329 327 325 329 332 333 333 334 334 333 332 333 333 333 334 333 334 333 332 331 327 322 319 319 320 320 318 320 323 323 323 324 325 326 325 325 324 324 325 326 328 328 328 328 328 327 327 327
329 328 328 328 329 330 332 333 334 334 335 335 334 333 332 331 327 327 332 333 333 333 334 333 333 334 334 333 334 334 334 334 333 331 325 319 317 320 321 320 320 322 322 323 324 325 327 327 326 327 326 326 325 325 327 327 328 328 328 327 327 327
327 326 326 327 327 329 332 333 333 333 334 334 335 334 334 334 331 330 333 334 334 334 334 334 334 335 333 332 333 333 334 333 333 330 324 320 319 321 321 320 320 321 321 322 324 325 325 325 326 328 328 328 327 326 327 327 328 328 329 329 327 327
326 325 327 328 329 330 332 331 330 330 331 332 333 334 333 334 333 333 334 334 334 334 335 334 334 335 333 332 332 331 332 333 332 331 327 322 319 320 321 320 320 320 321 322 324 324 323 324 327 329 329 329 328 328 328 328 329 329 329 329 329 327
325 326 329 330 330 330 329 325 323 325 327 329 331 332 333 333 333 333 333 334 334 334 334 334 333 333 332 330 331 331 332 332 332 330 327 324 321 322 321 320 321 321 322 323 323 323 324 328 331 330 330 329 329 329 329 329 329 329 329 329 329 328
324 328 330 330 329 327 324 321 320 322 323 324 327 331 332 332 333 332 331 332 333 334 334 333 333 332 331 331 332 332 332 332 332 331 328 327 326 324 323 321 320 321 323 323 324 325 328 331 331 330 331 329 329 329 329 329 328 328 329 329 328 328
325 329 329 328 326 324 322 321 321 321 321 320 322 327 330 331 330 329 328 328 329 331 331 331 331 331 332 332 332 333 332 332 332 332 331 330 330 328 326 324 322 322 324 325 326 329 330 330 329 330 331 330 330 330 329 329 328 328 329 328 327 327
327 329 327 326 324 322 322 321 322 322 322 320 320 323 326 327 326 324 325 325 325 326 327 328 329 329 330 332 332 332 332 332 332 332 331 330 331 331 330 329 327 326 327 328 328 329 330 329 329 330 330 330 331 330 329 328 328 329 328 327 326 325
327 326 325 324 322 322 320 319 321 323 321 319 320 321 321 323 323 323 324 325 325 324 325 326 327 328 329 330 331 331 331 331 331 331 330 330 331 332 331 331 331 331 330 329 329 330 329 328 328 330 330 331 331 330 330 329 328 328 327 327 327 325
325 325 324 322 321 320 318 317 320 322 320 317 319 321 321 323 323 323 324 325 325 325 325 324 325 327 328 328 329 329 330 330 330 331 330 329 330 331 330 331 332 332 332 331 331 331 330 328 327 329 330 330 330 331 330 330 329 328 328 328 328 327
324 324 322 321 319 317 317 318 320 320 319 317 320 322 322 323 323 322 322 323 324 324 324 323 323 324 324 325 326 327 327 326 327 329 329 328 329 329 328 329 331 331 330 330 331 331 330 327 326 327 329 328 329 331 331 330 329 328 328 327 328 328
323 322 321 319 317 316 316 318 319 318 317 318 321 323 323 322 322 322 321 321 321 320 320 320 321 322 323 322 323 326 325 322 322 326 329 328 329 328 326 328 331 330 328 328 328 330 329 327 327 329 331 329 328 330 331 330 330 329 329 328 328 328
322 321 320 318 316 315 315 316 317 317 316 319 322 322 322 321 319 319 319 319 317 316 315 315 318 320 322 322 322 324 326 325 323 325 328 329 329 327 326 327 328 328 329 328 328 330 330 329 330 331 331 331 330 329 329 329 329 330 330 330 329 329
322 320 319 317 315 314 314 315 314 313 315 318 321 320 318 315 313 314 316 316 315 313 313 315 318 320 321 321 322 323 324 326 326 326 327 328 328 328 328 329 328 328 329 329 330 330 329 330 330 329 329 332 333 332 332 330 330 330 330 331 330 330
321 320 317 316 314 312 313 314 311 312 313 315 316 315 313 312 312 313 315 315 314 313 315 317 319 319 319 319 320 321 322 324 324 325 325 326 327 327 328 329 328 328 327 328 329 329 329 330 329 329 330 331 331 332 334 332 331 331 330 330 331 330
319 318 316 314 312 311 313 312 310 311 311 311 312 313 313 314 313 314 315 315 313 314 317 318 317 317 317 317 317 319 320 321 322 322 323 323 324 324 325 326 327 327 326 327 328 327 328 329 329 329 329 329 330 331 333 330 330 331 330 330 330 330
318 317 315 313 311 311 312 310 309 309 309 310 314 314 313 313 313 315 315 314 313 314 316 316 316 317 317 317 317 318 319 320 320 320 320 321 321 321 321 322 324 325 326 326 326 327 328 328 328 329 328 328 329 331 331 329 330 331 330 329 329 329
317 316 314 312 311 311 312 309 307 307 307 309 311 311 311 311 312 313 314 314 315 314 315 316 317 317 317 317 317 317 318 319 319 319 319 319 319 319 319 319 320 322 323 324 325 325 326 327 327 327 328 327 327 328 328 329 330 330 331 331 330 330
316 315 313 312 311 311 311 310 307 307 307 307 308 308 309 311 312 313 313 315 316 315 316 317 317 318 317 316 316 315 316 317 317 318 318 318 317 317 316 316 317 318 320 321 322 323 323 324 324 325 325 326 326 327 327 328 329 329 330 330 329 329
315 314 313 312 311 311 311 310 309 308 307 307 307 308 310 311 312 312 313 314 316 316 316 317 317 316 313 313 312 311 310 310 311 312 313 313 312 312 312 312 312 314 315 317 318 320 320 320 321 322 322 323 324 325 326 327 327 327 328 328 328 328
315 314 313 312 312 312 311 311 310 310 309 308 307 308 309 311 312 313 313 313 316 317 316 317 317 313 309 309 308 307 307 306 306 306 306 306 306 305 306 306 307 309 310 312 313 315 316 317 318 319 319 320 321 322 324 325 324 325 326 327 327 327
314 314 314 312 313 312 312 312 312 310 311 311 310 308 309 311 312 313 312 313 316 317 316 317 317 312 307 306 306 307 308 306 305 305 304 304 303 303 303 304 305 306 307 308 310 310 311 312 314 315 316 317 318 319 320 322 322 322 324 325 325 325
312 313 314 313 313 313 312 313 313 312 312 312 312 309 308 309 310 311 310 312 315 317 317 317 316 312 307 306 307 308 309 307 305 305 304 303 303 303 303 303 304 305 305 306 307 308 309 309 310 312 313 313 315 316 316 317 318 319 320 322 323 323
310 312 313 313 314 314 313 312 313 313 312 312 313 311 309 307 308 308 308 310 313 316 316 316 315 312 308 308 309 309 310 309 306 305 305 304 304 303 303 304 305 305 305 306 306 307 307 307 307 308 309 310 311 312 313 313 314 315 316 318 320 321
310 310 311 312 313 313 314 314 313 314 314 313 313 312 310 309 307 306 306 307 309 312 312 312 312 311 309 310 311 311 310 310 308 306 305 305 304 303 303 304 305 305 305 306 306 306 307 306 306 306 306 307 308 309 309 310 311 312 313 314 316 317
311 311 311 312 313 314 314 314 314 314 315 315 315 314 311 310 309 307 306 306 307 308 308 308 309 310 310 311 312 312 311 310 310 307 305 305 305 304 303 304 305 304 304 305 305 306 306 306 306 306 305 305 306 307 307 308 308 309 310 311 313 314
312 311 312 313 314 315 315 315 315 316 316 317 317 316 313 311 310 309 307 306 306 307 307 307 308 310 311 312 312 312 311 311 310 308 306 305 305 304 303 304 305 304 304 305 305 306 306 306 306 306 305 305 305 306 306 306 307 307 308 308 309 311
312 311 312 313 314 315 315 316 316 316 317 318 318 316 313 311 310 310 309 307 306 306 307 308 308 309 310 311 312 313 312 311 311 309 307 306 305 305 304 304 304 305 305 305 305 305 305 306 305 305 305 305 305 305 305 305 306 306 306 307 308 308
Wind_Speed
11 9 9 10 10 9 8 8 7 9 11 13 15 15 15 13 11 10 10 10 10 10 10 10 10 9 9 8 8 8 8 10 10 10 10 10 11 10 10 11 11 10 10 11 11 10 10 9 8 6 5 3 3 3 4 5 5 4 4 4 5 5
10 9 9 9 10 9 9 8 8 9 10 11 13 14 14 12 11 10 11 11 10 9 9 10 10 9 9 9 8 8 8 9 10 9 8 8 9 10 9 10 11 11 10 10 10 10 10 9 9 8 6 5 4 4 5 6 5 4 5 4 5 5
9 9 8 8 9 9 8 8 8 9 9 10 12 13 13 11 11 11 12 11 9 9 8 8 8 9 9 9 8 9 9 9 9 9 8 7 8 10 9 8 9 11 11 9 9 9 9 8 9 8 6 5 5 5 5 7 7 5 5 4 5 5
9 8 8 7 7 7 8 8 8 8 8 9 10 12 12 11 11 11 11 10 9 8 8 7 8 8 9 9 9 9 9 8 9 8 7 7 7 9 10 9 8 9 10 10 9 8 8 7 8 8 7 6 6 6 6 8 8 7 6 4 4 4
10 9 9 8 7 7 7 7 7 7 8 8 8 9 11 11 11 11 11 10 9 8 7 7 8 9 10 10 10 9 9 9 9 8 8 7 7 9 10 10 8 8 9 10 9 8 8 8 7 8 7 6 6 6 6 9 8 7 6 5 4 4
10 9 9 9 9 7 7 6 6 6 7 7 7 7 9 10 11 12 12 10 9 9 8 7 7 9 10 10 10 10 10 10 9 9 8 7 8 8 9 10 9 8 9 10 9 8 8 7 7 7 7 7 7 7 8 10 8 7 6 5 4 3
9 9 9 9 9 8 8 6 5 6 6 6 6 6 8 9 9 11 12 11 10 9 9 8 8 8 9 9 10 11 11 11 10 9 8 8 8 8 9 10 11 10 9 9 9 8 6 6 6 6 7 7 7 8 9 10 8 7 6 6 5 4
10 10 9 8 8 8 8 6 5 5 5 5 5 6 7 7 7 8 10 12 12 11 9 9 9 8 8 9 10 12 12 12 11 9 8 8 8 8 10 10 11 10 8 7 8 7 5 5 5 5 6 7 7 7 9 10 9 8 7 6 6 5
12 11 9 8 7 7 6 5 5 5 5 5 6 6 6 7 6 7 9 11 12 12 11 10 10 9 8 8 9 12 13 13 11 10 8 7 8 8 9 10 11 11 8 6 6 7 6 5 4 3 4 6 7 7 8 9 9 8 7 7 7 6
13 11 10 9 7 6 5 4 5 4 5 5 5 6 6 7 7 7 7 8 10 12 11 10 9 9 9 8 8 10 13 13 11 9 8 8 8 8 9 10 11 11 9 7 7 7 6 5 3 2 3 4 6 7 7 8 8 8 8 8 8 8
13 11 9 8 6 6 5 4 4 4 4 4 5 6 7 7 7 7 6 6 8 9 10 10 10 9 9 8 8 10 12 12 11 10 10 10 8 7 8 9 10 11 10 9 8 7 6 5 3 2 3 4 6 7 8 8 8 8 8 8 9 9
13 11 9 8 7 5 4 4 4 4 4 4 4 5 7 8 8 7 6 6 7 7 8 9 9 8 6 6 7 10 12 13 14 13 13 11 8 7 8 9 10 10 9 9 8 7 6 4 3 3 3 4 6 8 9 10 10 9 9 9 10 10
13 12 10 9 7 5 4 4 4 5 5 4 3 3 5 7 8 8 7 7 7 6 6 6 8 8 4 3 6 7 12 17 18 15 12 11 10 10 10 10 10 10 9 9 8 7 6 5 4 4 4 4 6 8 9 10 11 11 11 10 11 11
13 12 10 9 8 6 5 4 4 3 3 2 2 2 2 4 6 8 8 9 7 5 5 5 6 8 5 4 5 6 10 14 16 16 14 12 12 11 11 11 11 10 10 9 8 7 6 5 5 4 5 5 6 8 10 10 11 12 12 11 11 11
13 12 11 10 9 8 6 4 4 4 4 3 3 2 2 1 2 5 6 7 7 3 4 3 3 4 3 5 6 7 7 8 12 16 17 14 12 11 10 11 12 12 11 10 9 8 8 7 6 5 5 6 7 8 10 10 12 13 13 12 10 10
14 13 13 12 10 9 7 5 5 5 6 5 5 5 4 3 2 1 0 1 2 1 0 1 1 0 2 5 6 5 6 7 9 14 16 14 12 11 10 11 12 12 11 11 10 8 7 7 8 7 7 7 7 7 9 10 12 13 13 13 11 10
15 15 14 13 12 10 7 6 6 6 6 6 6 7 6 5 4 3 3 3 3 2 1 1 0 1 3 5 5 5 7 7 6 8 11 12 12 13 14 13 13 12 11 11 10 8 7 7 8 8 8 8 8 8 9 11 12 13 14 14 13 12
16 16 15 14 12 10 8 6 6 7 6 7 7 8 7 6 6 5 5 5 5 4 3 3 2 1 2 3 3 4 6 5 4 4 5 8 11 14 17 16 14 13 12 11 10 9 7 7 7 8 9 9 9 10 11 12 13 14 16 16 15 15
18 18 17 15 12 10 8 7 7 7 7 7 7 8 7 6 6 6 6 6 6 6 5 5 4 4 3 2 1 1 2 3 4 4 4 6 9 11 14 15 14 13 12 10 10 8 7 7 8 8 9 10 10 10 11 13 14 15 17 18 18 18
20 19 17 15 13 11 10 10 10 9 8 8 8 8 7 6 5 5 5 5 5 5 5 4 4 5 5 5 4 2 2 2 2 4 4 4 6 7 9 10 10 11 12 11 10 9 6 7 7 8 8 10 11 11 11 12 13 15 17 19 20 21
21 20 18 16 15 13 13 13 12 11 10 10 9 8 7 5 4 4 4 4 4 4 3 3 4 4 5 7 6 4 4 3 2 1 2 2 4 5 7 8 7 8 11 10 10 8 6 6 5 6 6 7 10 11 11 11 12 13 15 17 19 21
22 21 19 16 14 13 13 13 12 12 11 11 10 8 7 5 4 5 5 5 5 4 4 3 4 4 5 8 9 8 6 5 4 4 3 4 4 1 3 6 6 7 8 8 8 7 6 5 3 3 3 3 6 8 10 12 13 14 15 16 18 20
23 22 19 16 13 13 12 11 10 10 11 11 10 8 7 6 6 6 6 6 5 5 5 6 7 6 7 9 10 11 11 9 7 6 6 7 8 5 2 2 3 5 7 7 6 5 4 4 4 3 2 1 1 2 5 7 9 13 15 16 17 18
25 23 20 17 14 13 12 11 9 9 10 9 9 8 7 7 7 7 6 6 6 6 8 8 8 8 8 8 9 11 13 12 11 10 10 10 9 7 5 3 3 4 5 5 4 3 2 3 4 4 2 1 0 0 2 2 3 7 8 10 14 15
26 24 21 19 17 15 15 13 11 11 9 8 9 9 8 7 6 6 6 6 7 8 9 8 8 8 8 8 8 9 11 13 13 12 13 13 12 10 8 6 4 4 3 3 3 3 3 2 3 5 3 2 1 1 2 1 2 3 2 2 5 7
27 25 23 21 19 18 17 16 14 14 12 10 9 9 8 7 7 6 6 6 7 8 7 7 7 7 8 9 9 9 10 11 11 11 12 13 13 12 12 11 8 6 6 5 4 5 5 3 3 3 3 3 3 3 2 2 2 2 2 2 1 2
28 26 25 23 22 20 20 18 16 16 14 13 11 9 8 7 7 7 6 7 7 7 7 7 7 7 7 8 9 9 10 10 11 11 11 11 12 12 12 12 11 9 8 7 6 7 6 4 4 4 2 1 2 4 4 4 3 3 3 1 1 1
29 28 27 26 24 23 22 20 18 16 15 14 11 9 9 9 8 8 7 7 7 8 8 7 7 7 7 7 9 10 10 11 11 11 10 11 11 11 11 11 11 10 9 8 7 7 6 5 5 4 4 3 2 2 2 3 3 3 3 3 3 4
30 29 28 28 26 24 23 20 19 17 16 15 12 10 10 11 10 9 9 8 8 8 8 7 7 7 8 10 12 13 13 13 12 12 11 11 11 10 10 10 11 11 11 11 9 8 7 7 6 5 5 4 4 4 2 1 2 2 3 3 4 4
32 31 31 30 28 27 24 22 20 18 18 16 13 11 12 12 12 11 11 10 9 9 8 7 7 8 11 13 14 14 15 15 15 14 14 13 12 11 11 11 11 11 11 12 11 11 10 8 7 6 6 5 5 4 3 2 4 5 4 3 4 4
33 33 33 31 30 29 26 24 22 20 19 18 16 13 14 14 14 13 12 12 11 10 9 8 8 9 12 13 13 13 15 16 16 16 16 16 15 14 13 13 12 12 11 12 12 11 11 10 9 9 8 7 6 5 4 3 5 6 5 5 5 5
33 35 34 33 32 31 28 26 24 22 20 20 19 17 16 16 15 15 14 14 13 12 11 9 9 10 11 11 11 12 13 14 15 16 16 17 17 16 15 15 14 14 13 13 12 11 11 11 10 10 9 8 7 6 5 5 5 6 5 6 7 6
34 35 35 34 34 32 31 28 26 24 22 21 21 21 19 18 17 16 15 15 15 14 14 12 11 11 11 10 9 10 11 12 13 14 14 15 16 16 16 16 16 16 15 14 13 13 12 11 11 10 9 7 7 6 5 5 5 6 6 6 7 7
33 34 35 35 35 34 33 30 27 25 24 22 22 23 22 21 19 17 16 16 15 15 15 15 14 13 12 11 9 8 9 10 11 11 12 13 14 15 15 16 16 16 15 14 13 13 12 11 11 10 9 7 7 6 5 5 6 6 6 6 6 7
29 31 33 34 35 35 34 32 29 27 26 24 24 24 24 23 21 19 17 17 15 14 14 14 14 13 13 11 10 8 8 8 9 9 9 9 11 12 13 14 14 14 14 12 12 11 10 10 10 9 9 8 6 6 5 5 5 5 6 6 6 7
26 28 30 31 32 32 32 31 29 28 27 26 25 25 25 24 22 20 18 17 16 14 14 14 15 14 13 12 10 9 8 7 7 8 7 7 8 8 10 12 12 12 11 10 10 9 8 8 8 7 7 6 5 4 5 4 4 4 4 4 5 6
23 25 28 29 30 30 29 28 27 27 26 26 26 26 27 25 23 21 19 18 17 16 15 15 15 15 14 13 11 10 9 8 8 7 7 6 6 6 7 9 10 10 9 8 8 8 7 6 6 5 5 5 4 3 4 3 3 3 3 3 3 4
Wind_Direction
138 139 140 144 149 151 153 158 155 157 171 180 183 182 179 174 169 169 168 167 171 172 174 173 173 174 173 176 182 188 183 177 175 173 175 180 188 193 192 190 187 186 190 195 195 186 180 182 187 197 210 227 240 233 205 184 191 189 171 159 149 154
138 141 137 136 143 149 150 154 152 151 167 180 179 179 176 171 169 171 169 171 174 175 178 178 177 176 177 179 188 196 190 184 181 179 183 185 188 192 196 195 186 183 186 191 195 189 184 182 180 186 200 217 224 233 220 183 176 186 178 167 160 161
146 145 141 135 140 148 149 153 154 149 159 170 172 176 174 170 170 173 174 175 176 178 182 183 180 180 183 184 190 198 192 187 184 181 183 186 187 186 195 199 185 182 186 188 191 190 190 189 183 181 191 209 217 232 221 180 170 175 175 168 166 161
157 155 153 148 143 146 148 152 155 151 154 164 174 179 178 175 174 178 179 177 178 183 183 181 182 185 191 194 197 195 190 190 186 184 184 185 190 187 194 203 196 189 185 187 192 191 190 194 190 182 187 201 210 226 207 176 173 174 171 169 168 160
163 163 165 165 156 151 149 151 159 160 156 165 182 183 180 184 185 184 180 179 183 187 186 183 188 193 197 201 204 194 188 192 188 188 186 187 198 196 196 198 200 199 188 188 194 195 189 192 194 185 185 194 203 214 193 176 178 178 176 173 171 158
164 167 168 169 166 161 158 155 159 167 164 168 178 175 179 192 198 195 189 189 189 190 193 191 192 200 203 203 203 197 193 193 189 191 192 194 204 206 206 201 199 203 192 186 191 197 194 194 195 188 185 188 200 205 187 181 182 179 183 184 180 166
167 170 167 169 168 166 167 166 162 168 171 173 177 174 182 196 203 204 203 204 202 201 202 204 201 202 206 205 203 200 198 197 192 195 200 204 212 215 221 215 207 208 194 182 186 191 197 205 204 196 189 185 197 204 190 186 188 184 187 194 197 187
172 174 170 168 168 168 171 173 175 176 177 181 183 179 186 193 197 202 208 212 216 214 213 214 209 202 203 204 208 208 204 201 195 200 206 206 218 221 224 221 213 211 198 182 184 183 190 212 219 209 200 190 192 205 196 189 192 192 194 202 210 209
175 176 174 172 171 170 170 174 179 183 185 191 194 191 195 199 197 196 201 210 219 223 220 214 208 207 208 206 214 215 211 205 198 204 209 205 216 223 222 219 212 209 205 192 184 179 175 190 213 220 216 203 196 203 201 195 194 197 205 211 218 224
178 178 178 178 179 175 172 173 179 188 194 198 208 206 204 205 206 203 200 204 212 219 217 212 211 213 212 211 218 219 216 211 204 206 211 212 217 220 217 212 207 206 209 203 185 173 165 166 189 216 226 219 211 209 204 199 200 207 215 218 223 231
182 184 186 187 191 185 176 177 182 193 202 210 221 219 212 208 208 207 207 201 200 206 212 218 221 224 221 217 224 222 215 212 209 212 211 210 213 215 210 205 203 203 202 198 188 176 169 168 184 216 227 223 222 220 214 211 214 221 226 228 230 233
187 189 194 197 204 201 182 183 194 204 217 223 226 231 221 213 208 205 209 207 202 202 210 223 228 238 234 222 238 226 211 210 210 212 214 208 203 200 189 186 195 201 199 197 195 190 190 201 216 224 223 221 226 226 224 223 227 231 233 237 237 236
190 193 198 200 204 207 194 193 206 221 231 224 215 226 218 213 213 210 213 217 218 213 213 226 235 243 227 206 256 232 204 212 209 205 213 209 204 200 187 181 189 200 203 202 206 211 219 234 239 230 220 226 229 228 230 230 234 236 235 240 243 240
193 195 197 197 197 194 190 188 190 195 200 196 193 204 210 215 220 219 221 223 223 229 234 242 248 250 236 198 252 246 211 214 210 204 207 206 205 208 202 195 195 200 207 213 224 236 242 245 247 244 241 242 234 235 239 236 237 238 237 240 242 240
193 193 191 188 183 179 172 161 142 124 118 115 138 163 179 184 222 228 231 230 224 233 246 250 272 270 239 195 227 254 240 224 215 209 209 208 207 210 210 208 206 206 211 222 232 240 248 259 270 270 264 258 245 241 243 240 241 241 240 240 240 240
190 186 184 179 174 172 164 151 134 117 114 108 119 144 166 163 164 196 319 258 210 182 133 197 289 219 189 206 216 243 254 246 231 217 212 212 210 209 214 217 216 215 216 225 234 241 255 274 286 282 271 265 258 250 246 245 244 244 244 244 244 245
187 182 179 176 173 169 161 154 147 135 126 116 118 133 146 147 130 108 82 72 94 82 55 109 143 172 202 228 216 219 239 246 241 223 216 216 210 208 214 218 220 220 218 226 237 250 265 282 293 287 275 274 272 261 253 249 247 248 250 249 246 246
184 181 179 177 174 169 162 160 159 152 140 130 128 130 131 129 116 101 89 82 85 83 74 74 69 104 195 223 213 226 242 240 233 228 223 219 211 211 218 219 220 226 228 234 241 251 264 277 288 282 274 283 282 266 257 253 251 253 253 251 249 248
184 181 181 179 173 167 162 160 163 161 151 142 138 135 132 126 116 99 84 80 78 80 73 61 59 65 81 100 108 210 245 234 221 221 230 222 210 216 225 222 220 228 233 238 240 245 260 268 278 277 270 281 283 268 259 255 252 254 253 252 252 253
184 183 182 176 170 164 160 159 161 159 154 151 148 146 142 134 121 105 92 85 75 73 68 57 54 51 55 65 70 84 96 103 203 230 246 239 213 221 230 220 217 227 231 235 234 236 250 262 277 286 275 274 279 272 262 257 253 253 253 252 253 255
183 185 184 177 171 168 163 161 159 157 157 156 155 152 146 143 134 124 116 104 91 82 74 64 59 52 53 59 65 77 90 94 92 195 230 209 203 229 232 209 200 217 226 227 223 224 238 251 268 279 274 276 282 278 268 261 256 254 254 254 256 257
183 185 187 183 178 177 172 166 163 161 162 159 157 154 149 148 144 135 125 113 103 89 80 83 83 80 78 74 75 79 84 97 98 103 113 114 123 151 233 207 196 200 204 204 204 208 222 235 243 247 254 274 284 283 275 268 262 258 256 254 255 258
185 186 189 188 186 184 177 174 172 167 164 161 160 161 154 142 130 127 120 107 93 81 83 98 103 100 96 89 83 81 83 93 98 102 102 97 101 102 118 160 170 172 166 168 180 187 199 212 213 209 219 248 287 300 280 274 268 261 257 253 255 257
187 188 188 188 190 187 178 176 173 168 168 164 160 158 147 132 124 121 115 101 87 87 93 101 103 96 92 90 86 84 86 92 95 97 98 94 95 99 108 117 120 131 136 147 156 147 151 177 188 191 198 211 85 42 252 284 297 275 262 252 254 255
188 188 187 188 190 185 178 176 170 165 169 162 157 157 151 142 136 128 115 102 97 103 105 101 96 86 86 88 88 91 92 94 94 92 93 91 89 88 90 92 88 91 101 137 161 144 120 138 184 196 204 193 182 230 224 357 324 291 298 276 260 251
190 189 187 189 190 184 179 179 173 169 170 166 166 172 170 159 148 137 120 107 108 114 112 102 94 88 87 88 91 98 101 102 100 95 93 91 88 84 80 77 74 78 79 92 126 121 103 106 144 169 202 212 240 268 259 301 305 273 313 340 117 144
191 190 188 189 189 185 181 182 182 179 180 180 180 180 175 162 152 146 128 112 110 117 114 103 98 92 87 88 94 100 103 107 106 102 99 95 90 84 79 76 74 76 73 72 87 90 80 78 97 96 98 171 248 271 259 267 272 270 289 281 140 97
192 192 191 190 190 187 184 184 186 189 191 191 188 181 174 167 161 154 141 125 114 116 117 107 100 91 84 87 96 101 103 107 106 104 102 97 92 87 82 80 76 75 75 70 72 79 73 58 62 58 40 46 22 340 267 259 265 274 283 270 273 287
194 194 194 193 192 190 188 187 189 194 199 199 196 186 178 174 168 162 154 144 129 124 122 113 102 90 90 97 100 99 97 97 98 97 98 96 93 89 85 82 78 76 77 77 74 77 75 61 56 50 30 27 19 4 350 358 359 323 303 281 282 287
195 196 197 196 194 193 193 193 194 199 205 207 205 194 184 180 174 170 164 157 148 140 134 124 112 99 102 107 103 95 89 88 90 92 92 90 86 82 77 76 77 77 78 77 74 74 74 67 61 54 41 34 23 6 350 8 10 348 324 292 282 288
197 198 199 198 198 197 196 197 199 202 208 215 215 204 193 187 181 177 173 167 162 155 149 141 128 116 115 114 105 92 85 84 87 89 87 84 80 76 74 73 73 73 73 71 69 69 68 63 60 55 49 45 38 28 17 6 358 347 329 307 297 288
199 201 200 199 200 201 200 201 203 205 210 218 221 215 206 198 190 183 180 175 170 166 162 156 144 134 130 124 110 97 88 84 84 86 86 83 78 75 74 75 74 73 71 68 66 66 61 58 56 52 48 45 42 40 30 16 0 348 334 318 308 292
201 202 202 201 202 203 204 204 205 208 212 218 224 223 217 210 201 192 187 182 176 173 171 167 159 151 146 138 122 107 96 88 85 86 87 84 78 73 73 77 78 77 76 72 70 70 66 61 58 54 50 45 40 37 27 14 360 347 341 326 313 298
203 203 203 203 203 205 207 208 208 211 214 218 224 226 224 218 211 203 196 192 186 181 178 174 166 161 157 153 141 123 108 95 89 87 86 84 78 72 73 79 81 79 78 77 74 74 72 66 61 55 51 47 42 38 24 12 2 352 348 333 321 314
203 204 204 204 205 205 208 210 212 215 218 222 227 229 228 225 219 213 205 201 196 189 184 177 170 166 164 164 157 142 125 110 101 94 87 83 79 72 71 80 83 79 78 77 74 73 71 67 62 56 50 46 44 39 28 17 8 358 354 339 322 319
205 206 207 207 207 208 210 213 215 218 222 227 231 232 232 230 226 221 214 210 205 198 190 180 173 171 170 171 168 159 144 132 122 114 105 94 88 79 71 79 85 83 81 80 77 76 75 70 64 60 53 47 46 42 30 22 15 4 357 338 316 310
209 210 212 211 211 211 212 216 219 223 228 232 235 235 234 234 233 228 223 218 213 207 198 186 180 177 176 177 176 172 162 151 141 132 123 111 101 91 78 79 85 85 84 85 84 81 79 76 69 64 56 48 49 45 30 25 20 9 2 342 313 297